Location: Unspecified
(0.0000°N, 0.0000°E)
Time: 17:28:08
(UTC+00:00)

A-11 Canister half - Pass Details

Date: 27 May 2026
Orbit: 1515 x 1685 km, 47.2° (Epoch: 9 June)

Event Time Altitude Azimuth Distance (km) Brightness Sun altitude
Rises 14:29:39 0° 213° (SSW) 4,938 11.7 47.1°
Reaches altitude 10° 14:32:53 10° 210° (SSW) 3,946 11.3 46.4°
Maximum altitude 14:42:56 66° 130° (SE) 1,788 9.7 44.3°
Drops below altitude 10° 14:52:43 10° 49° (NE) 3,850 11.0 42.2°
Sets 14:55:49 0° 47° (NE) 4,813 11.5 41.5°
